Weather History for Moncks Corner, SC

Change the Weather History Date:

Thursday, October 18, 2012

  Actual Average (KCHS) Record (KCHS)
Temperature  
Mean Temperature 70 °F 66 °F  
Max Temperature 82 °F 77 °F 88 °F (1980)
Min Temperature 57 °F 56 °F 37 °F (1970)
Degree Days  
Heating Degree Days 0 2  
Month to date heating degree days 24  
Since 1 July heating degree days 27  
Cooling Degree Days 4 3  
Month to date cooling degree days 93  
Year to date cooling degree days 2231  
Growing Degree Days 20 (Base 50)    
Moisture  
Dew Point 63 °F    
Average Humidity 81    
Maximum Humidity 94    
Minimum Humidity 54    
Precipitation  
Precipitation 0.00 in 0.11 in 3.50 in (1965)
Month to date precipitation 2.47  
Year to date precipitation 44.21  
Sea Level Pressure  
Sea Level Pressure 29.85 in    
Wind  
Wind Speed 2 mph (SSW)    
Max Wind Speed 9 mph    
Max Gust Speed -    
Visibility 8 miles    
Events      
T = Trace of Precipitation, MM = Missing Value Source: NWS Daily Summary

Daily Weather History Graph

Daily Weather History Graph

Search for Another Location

Airport:

Trip Planner

Search our weather history database for the weather conditions in past years. The results will help you decide how hot, cold, wet, or windy it might be!

Date:

Astronomy

Oct. 18, 2012 Rise Set
Actual Time 7:27 AM EDT 6:42 PM EDT
Civil Twilight 7:02 AM EDT 7:07 PM EDT
Nautical Twilight 6:33 AM EDT 7:36 PM EDT
Astronomical Twilight 6:04 AM EDT 8:05 PM EDT
Moon 10:56 AM EDT (10/18) 9:25 PM EDT (10/18)
Length of Visible Light 12h 05m
Length of Day
11h 15m
Waxing Crescent, 14% of the Moon is Illuminated
Oct 18
Waxing Crescent
Oct 21
First Quarter
Oct 29
Full
Nov 6
Last Quarter
Nov 13
New

Hourly Weather History & Observations

Time (EDT) Temp. Heat Index Dew Point Humidity Pressure Visibility Wind Dir Wind Speed Gust Speed Precip Events Conditions
12:15 AM 60.8 °F - 57.2 °F 88% 29.92 in 7.0 mi Calm Calm - N/A   Clear
12:35 AM 60.8 °F - 57.2 °F 88% 29.91 in 10.0 mi Calm Calm - N/A   Clear
12:55 AM 59.0 °F - 57.2 °F 94% 29.90 in 10.0 mi Calm Calm - N/A   Clear
1:15 AM 59.0 °F - 55.4 °F 88% 29.89 in 7.0 mi Calm Calm - N/A   Clear
1:35 AM 59.0 °F - 57.2 °F 94% 29.89 in 10.0 mi Calm Calm - N/A   Clear
1:55 AM 59.0 °F - 57.2 °F 94% 29.88 in 7.0 mi Calm Calm - N/A   Clear
2:15 AM 59.0 °F - 57.2 °F 94% 29.88 in 7.0 mi Calm Calm - N/A   Clear
2:35 AM 57.2 °F - 55.4 °F 94% 29.87 in 7.0 mi Calm Calm - N/A   Clear
2:55 AM 57.2 °F - 55.4 °F 94% 29.87 in 7.0 mi Calm Calm - N/A   Clear
3:15 AM 57.2 °F - 55.4 °F 94% 29.87 in 7.0 mi Calm Calm - N/A   Clear
3:35 AM 57.2 °F - 55.4 °F 94% 29.87 in 7.0 mi Calm Calm - N/A   Clear
3:55 AM 57.2 °F - 55.4 °F 94% 29.86 in 7.0 mi Calm Calm - N/A   Clear
4:15 AM 57.2 °F - 55.4 °F 94% 29.86 in 7.0 mi Calm Calm - N/A   Clear
4:35 AM 57.2 °F - 55.4 °F 94% 29.86 in 7.0 mi Calm Calm - N/A   Clear
4:55 AM 57.2 °F - 55.4 °F 94% 29.85 in 7.0 mi Calm Calm - N/A   Clear
5:15 AM 57.2 °F - 55.4 °F 94% 29.86 in 7.0 mi Calm Calm - N/A   Clear
5:35 AM 57.2 °F - 55.4 °F 94% 29.86 in 7.0 mi Calm Calm - N/A   Clear
5:55 AM 57.2 °F - 55.4 °F 94% 29.86 in 7.0 mi Calm Calm - N/A   Clear
6:15 AM 57.2 °F - 55.4 °F 94% 29.87 in 7.0 mi Calm Calm - N/A   Clear
6:35 AM 59.0 °F - 57.2 °F 94% 29.89 in 7.0 mi Calm Calm - N/A   Clear
6:55 AM 59.0 °F - 57.2 °F 94% 29.89 in 7.0 mi Calm Calm - N/A   Clear
7:35 AM 60.8 °F - 59.0 °F 94% 29.89 in 10.0 mi Calm Calm - N/A   Clear
7:55 AM 62.6 °F - 59.0 °F 88% 29.89 in 7.0 mi SSE 3.5 mph - N/A   Clear
8:15 AM 64.4 °F - 60.8 °F 88% 29.88 in 7.0 mi Calm Calm - N/A   Clear
8:35 AM 64.4 °F - 60.8 °F 88% 29.90 in 7.0 mi SW 3.5 mph - N/A   Clear
8:55 AM 66.2 °F - 62.6 °F 88% 29.89 in 10.0 mi SSE 3.5 mph - N/A   Clear
9:15 AM 68.0 °F - 64.4 °F 88% 29.89 in 10.0 mi WSW 3.5 mph - N/A   Clear
9:35 AM 68.0 °F - 64.4 °F 88% 29.90 in 10.0 mi South 6.9 mph - N/A   Clear
9:55 AM 69.8 °F - 64.4 °F 83% 29.90 in 10.0 mi South 5.8 mph - N/A   Clear
10:15 AM 71.6 °F - 64.4 °F 78% 29.89 in 10.0 mi SSW 6.9 mph - N/A   Clear
10:35 AM 71.6 °F - 66.2 °F 83% 29.89 in 7.0 mi SSW 5.8 mph - N/A   Clear
10:55 AM 73.4 °F - 66.2 °F 78% 29.89 in 10.0 mi SSW 8.1 mph - N/A   Clear
11:15 AM 75.2 °F - 66.2 °F 73% 29.88 in 10.0 mi SSW 5.8 mph - N/A   Clear
11:35 AM 77.0 °F - 64.4 °F 65% 29.87 in 10.0 mi South 5.8 mph - N/A   Clear
11:55 AM 78.8 °F - 66.2 °F 65% 29.86 in 7.0 mi South 6.9 mph - N/A   Clear
12:15 PM 78.8 °F - 64.4 °F 61% 29.86 in 10.0 mi SSW 6.9 mph - N/A   Clear
12:35 PM 80.6 °F 82.3 °F 64.4 °F 58% 29.85 in 10.0 mi South 8.1 mph - N/A   Clear
12:55 PM 80.6 °F 82.3 °F 64.4 °F 58% 29.84 in 7.0 mi South 6.9 mph - N/A   Clear
1:15 PM 82.4 °F 83.9 °F 64.4 °F 54% 29.84 in 10.0 mi South 9.2 mph - N/A   Clear
1:35 PM 80.6 °F 82.3 °F 64.4 °F 58% 29.82 in 10.0 mi South 6.9 mph - N/A   Clear
1:55 PM 80.6 °F 82.3 °F 64.4 °F 58% 29.82 in 10.0 mi South 3.5 mph - N/A   Clear
2:15 PM 80.6 °F 82.3 °F 64.4 °F 58% 29.81 in 7.0 mi SSW 6.9 mph - N/A   Clear
2:35 PM 80.6 °F 82.3 °F 64.4 °F 58% 29.81 in 10.0 mi South 5.8 mph - N/A   Clear
2:55 PM 82.4 °F 84.6 °F 66.2 °F 58% 29.80 in 10.0 mi South 8.1 mph - N/A   Clear
3:15 PM 82.4 °F 83.9 °F 64.4 °F 54% 29.80 in 10.0 mi SSW 6.9 mph - N/A   Clear
3:35 PM 82.4 °F 83.9 °F 64.4 °F 54% 29.80 in 10.0 mi South 6.9 mph - N/A   Clear
3:55 PM 80.6 °F 82.3 °F 64.4 °F 58% 29.80 in 10.0 mi South 5.8 mph - N/A   Clear
4:15 PM 80.6 °F 82.7 °F 66.2 °F 61% 29.80 in 10.0 mi SSW 6.9 mph - N/A   Clear
4:35 PM 78.8 °F - 64.4 °F 61% 29.80 in 7.0 mi SSW 9.2 mph - N/A   Scattered Clouds
4:55 PM 78.8 °F - 66.2 °F 65% 29.80 in 10.0 mi SSW 5.8 mph - N/A   Clear
5:15 PM 78.8 °F - 66.2 °F 65% 29.80 in 10.0 mi SSW 5.8 mph - N/A   Clear
5:35 PM 77.0 °F - 66.2 °F 69% 29.81 in 10.0 mi SSW 6.9 mph - N/A   Scattered Clouds
5:55 PM 77.0 °F - 66.2 °F 69% 29.81 in 10.0 mi SSW 4.6 mph - N/A   Clear
6:15 PM 75.2 °F - 66.2 °F 73% 29.81 in 7.0 mi Calm Calm - N/A   Clear
6:35 PM 73.4 °F - 66.2 °F 78% 29.82 in 7.0 mi SSW 3.5 mph - N/A   Clear
6:55 PM 73.4 °F - 66.2 °F 78% 29.82 in 7.0 mi Calm Calm - N/A   Clear
7:15 PM 69.8 °F - 66.2 °F 88% 29.82 in 7.0 mi SSE 3.5 mph - N/A   Clear
7:35 PM 71.6 °F - 66.2 °F 83% 29.82 in 10.0 mi Calm Calm - N/A   Clear
7:55 PM 71.6 °F - 66.2 °F 83% 29.82 in 10.0 mi Calm Calm - N/A   Clear
8:15 PM 71.6 °F - 66.2 °F 83% 29.82 in 10.0 mi SSE 3.5 mph - N/A   Clear
8:35 PM 69.8 °F - 66.2 °F 88% 29.83 in 10.0 mi Calm Calm - N/A   Clear
8:55 PM 69.8 °F - 66.2 °F 88% 29.83 in 7.0 mi Calm Calm - N/A   Scattered Clouds
9:15 PM 69.8 °F - 68.0 °F 94% 29.83 in 7.0 mi Calm Calm - N/A   Scattered Clouds
9:35 PM 69.8 °F - 66.2 °F 88% 29.84 in 7.0 mi Calm Calm - N/A   Clear
9:55 PM 69.8 °F - 68.0 °F 94% 29.83 in 7.0 mi South 3.5 mph - N/A   Clear
10:15 PM 71.6 °F - 68.0 °F 88% 29.83 in 7.0 mi Calm Calm - N/A   Clear
10:35 PM 71.6 °F - 68.0 °F 88% 29.82 in 7.0 mi Calm Calm - N/A   Clear
10:55 PM 69.8 °F - 68.0 °F 94% 29.83 in 7.0 mi SSW 4.6 mph - N/A   Clear
11:15 PM 71.6 °F - 68.0 °F 88% 29.82 in 7.0 mi South 3.5 mph - N/A   Clear
11:35 PM 71.6 °F - 68.0 °F 88% 29.82 in 7.0 mi South 3.5 mph - N/A   Clear
11:55 PM 71.6 °F - 68.0 °F 88% 29.82 in 7.0 mi SSW 3.5 mph - N/A   Clear